This is the latest recevied weather packets stored in our database for station/object DM0MR. If no packets are shown the sender has not sent any weather packets the latest 10 day(s).
| Time | Temp. | Humidity | Pressure | Rain* | Wind** | Luminosity | Snow |
|---|---|---|---|---|---|---|---|
| 1777325185 | 6.67° C | 80% | 1011.3 hPa | 0 mm | - | - | - |
| 1777324284 | 6.67° C | 78% | 1011.4 hPa | 0 mm | - | - | - |
| 1777323385 | 6.67° C | 76% | 1011.5 hPa | 0 mm | - | - | - |
| 1777321584 | 7.22° C | 72% | 1011.4 hPa | 0 mm | - | - | - |
| 1777320685 | 7.78° C | 71% | 1011.4 hPa | 0 mm | - | - | - |
| 1777319785 | 8.33° C | 69% | 1011.6 hPa | 0 mm | - | - | - |
| 1777318885 | 8.89° C | 67% | 1011.5 hPa | 0 mm | - | - | - |
| 1777317085 | 10.56° C | 62% | 1011.7 hPa | 0 mm | - | - | - |
| 1777315284 | 11.11° C | 56% | 1011.4 hPa | 0 mm | - | - | - |
| 1777314386 | 11.67° C | 54% | 1011.1 hPa | 0 mm | - | - | - |
| 1777313486 | 13.33° C | 48% | 1011.2 hPa | 0 mm | - | - | - |
| 1777311684 | 14.44° C | 44% | 1011.1 hPa | 0 mm | - | - | - |
| 1777310785 | 15° C | 46% | 1011.2 hPa | 0 mm | - | - | - |
| 1777308084 | 15.56° C | 43% | 1011 hPa | 0 mm | - | - | - |
| 1777306285 | 16.67° C | 39% | 1011.1 hPa | 0 mm | - | - | - |
| 1777305385 | 17.22° C | 41% | 1011.3 hPa | 0 mm | - | - | - |
| 1777304485 | 16.67° C | 42% | 1011.3 hPa | 0 mm | - | - | - |
| 1777303585 | 17.22° C | 40% | 1011.3 hPa | 0 mm | - | - | - |
| 1777302684 | 17.22° C | 36% | 1011.3 hPa | 0 mm | - | - | - |
| 1777301784 | 17.22° C | 35% | 1011.6 hPa | 0 mm | - | - | - |
| 1777300885 | 17.78° C | 33% | 1011.7 hPa | 0 mm | - | - | - |
| 1777299984 | 18.33° C | 33% | 1011.9 hPa | 0 mm | - | - | - |
| 1777299085 | 18.33° C | 35% | 1011.9 hPa | 0 mm | - | - | - |
| 1777298184 | 18.33° C | 36% | 1012.1 hPa | 0 mm | - | - | - |
| 1777297285 | 18.33° C | 37% | 1012.2 hPa | 0 mm | - | - | - |
* Rain latest hour (hover to see other rain measurements)
** Current wind speed in m/s (hover to see current wind gust speed)